Weather in Morga

Russia / Republic of Mordovia     54°24′10″N   46°26′50″E
temp.,
°C
wind,
m/s
gust,
m/s
humid.,
%
clouds,
%
prec.,
mm/h
press.,
hPa
HPBL,
m
24 may, tue
tue2400:000sw228932 0.0 100411
03:000ssw3119314 0.0 1003227
06:00+4wsw6138683 0.3 1003451
09:00+8wnw5864100 0.3 10041190
12:00+8wnw5662100 0.0 10041010
15:00+9wnw5662100 0.1 10051381
18:00+6nw4592100 1.3 1007522
21:00+4w259397 1.6 1008342
25 may, wed
wed2500:00+2wsw229694 0.0 100837
03:00+3wnw3595100 0.1 1009204
06:00+2nw478875 0.0 1010401
09:00+5nw5575100 0.3 10111168
12:00+8nw5659100 0.5 10111563
15:00+9wnw6761100 1.2 10121441
18:00+8w58675 0.4 1013886
21:00+4w38835 0.4 1014131
26 may, thu
thu2600:00+2w33855 0.0 101537
03:00+1sw358923 0.0 101572
06:00+5sw488175 0.0 1014266
09:00+10sw676397 0.0 10141088
12:00+11sw575989 0.1 10131570
15:00+12sw686769 0.3 10131393
18:00+13sw25745 0.1 1011794
21:00+8sse3388100 0.1 101136
27 may, fri
fri2700:00+9s41093100 0.4 1009280
03:00+9sse51395100 1.9 1006439
06:00+10sse81693100 2.1 1002897
09:00+11ssw81494100 4.3 1000816
12:00+10sw81392100 0.4 1001958
15:00+14w8147979 1.2 10021431
18:00+12wsw498717 0.3 1004516
21:00+9sw410965 0.4 1006263
28 may, sat
sat2800:00+8sw410978 0.0 1007256
03:00+7sw4997100 0.0 1008196
06:00+10ssw41190100 0.0 1008322
09:00+14ssw71375100 0.0 1007866
12:00+19ssw9156894 0.0 10061703
15:00+17ssw91775100 0.2 10061574
18:00+12wsw51288100 1.1 1009617
21:00+9sw4996100 1.1 1011237